COSMOS 2317 (GLONASS)

Satellite information

Favourite Embed

Satellite Type and Status

PAYLOADIN ORBIT

Key statistics

Satellite COSMOS 2317 (GLONASS) at a glance.

Uptime

11053

Days in orbit

Revolutions

≈ 2.1

Per day

Orbit

MEO

Medium Earth Orbit

Inclination

65.5

Latest

Satellite identification and parameters

Extended collection of information and parameters for COSMOS 2317 (GLONASS).

Object identification

Identified? True

Debris? False

Object name: COSMOS 2317 (GLONASS)

International designator: 1995-037B

Object number (NORAD): 23621

Object ID (CCSDS): 23621

Country: COMMONWEALTH OF INDEPENDENT STATES (CIS)

Current information (Y/N): Y

RCS size: LARGE

Orbital parameters

Period: 675.734 minutes

Inclination: 65.4776 deg

SMA: 25508.052 km

Apoapsis: 19154.005 km

Periapsis: 19105.829 km

RAAN: 210.6323 deg

Eccentricy: 0.00094433

Argument of periapsis: 167.0946 deg

Mean anomaly: 20.9689 deg

Mean motion: 2.13101651 rev/day

Mean motion (dot): 0.00000018 rev/day2

B* drag term: 0.0 1/REarth

Two-line elements (TLE)

Creation date: Oct. 23, 2025, 2:46 a.m.

Reference frame: TEME

Reference center: EARTH

Epoch: Oct. 22, 2025, 6:05 p.m. UTC

TLE line 0: 0 COSMOS 2317 (GLONASS)

TLE line 1: 1 23621U 95037B 25295.75409999 .00000018 00000-0 00000-0 0 9992

TLE line 2: 2 23621 65.4776 210.6323 0009443 167.0946 20.9689 2.13101651235195

Live tracking on map

Real-time ground track for satellite COSMOS 2317 (GLONASS).

In-orbit conjunctions

A list of the most updated potential collisions computed for object COSMOS 2317 (GLONASS).

Target Orbit TCA Probability of collision Miss distance Type
SL-12 R/B(2) MEO 2025-10-14 08:18:57 TBA 1378.0 (m) ROCKET BODY

Associated space launch

GLONASS navigation satellites

COSMOS 2317 (GLONASS) was lifted into orbit during the mission ‘Proton | Uragan 66 to 68’, on board a Proton space rocket.

The launch took place on July 24, 1995, 3:52 p.m. from 200/39 (200L).

For more information about the launch, click the button.

Launch to space Proton | Uragan 66 to 68
Proton | Uragan 66 to 68

Agency: N/A

Status: Launch Successful

Launch date: July 24, 1995, 3:52 p.m. UTC

Rocket: Proton

Launch pad: 200/39 (200L)

Location: Baikonur Cosmodrome, Republic of Kazakhstan

...

Latest news about this satellite

There are no fresh news available about this satellite. Check back as we update our databases every day.


Newsletter sign-up

Weekly statistics, charts and insights to help you stay on top of the space industry.